Location: Unspecified
(48.2082°N, 0.0000°E)
Time: 11:35:10
(UTC+00:00)

S-56A Canister/Altair - Pass Details

Date: 24 June 2019
Orbit: 632 x 2500 km, 38.9° (Epoch: 21 July)

Event Time Altitude Azimuth Distance (km) Brightness Sun altitude
Rises 14:27:07 0° 220° (SW) 5,594 12.5 52.2°
Reaches altitude 10° 14:31:47 10° 211° (SSW) 4,301 12.0 51.5°
Maximum altitude 14:40:31 28° 159° (SSE) 2,509 10.5 50.2°
Drops below altitude 10° 14:46:56 10° 103° (ESE) 3,095 10.4 49.2°
Sets 14:49:41 0° 92° (E) 3,816 10.7 48.8°
